Location: Lugano
(46.0000°N, 8.9670°E)
Time: 16:54:05
(UTC+02:00)

Envisat - Pass Details

Date: 21 March 2026
Orbit: 761 x 762 km, 98.4° (Epoch: 19 April)

Event Time Altitude Azimuth Distance (km) Brightness Sun altitude
Rises 04:54:18 0° 357° (N) 3,235 6.4 -16.4°
Reaches altitude 10° 04:57:48 10° 332° (NNW) 2,304 5.4 -15.9°
Maximum altitude 05:00:07 13° 304° (NW) 2,077 4.9 -15.5°
Enters shadow 05:00:34 13° 298° (WNW) 2,084 4.8 -15.4°
